Weather History for KRGK - August, 2014

Change the Weather History Date:

Tuesday, August 12, 2014

  Actual Average Record
Temperature  
Mean Temperature 66 °F -  
Max Temperature 78 °F 77 °F 91 °F (2010)
Min Temperature 53 °F 56 °F 51 °F (2004)
Growing Degree Days 16 (Base 50)    
Moisture  
Dew Point 53 °F    
Average Humidity 69    
Maximum Humidity 100    
Minimum Humidity 32    
Precipitation  
Precipitation 0.00 in - - ()
Sea Level Pressure  
Sea Level Pressure 30.02 in    
Wind  
Wind Speed 4 mph (NNW)    
Max Wind Speed 15 mph    
Max Gust Speed 20 mph    
Visibility 9 miles    
Events      
Averages and records for this station are not official NWS values.
T = Trace of Precipitation, MM = Missing Value Source: NWS Daily Summary

Daily Weather History Graph

Daily Weather History Graph

Search for Another Location

Airport or City:

Trip Planner

Search our weather history database for the weather conditions in past years. The results will help you decide how hot, cold, wet, or windy it might be!

Date:

Astronomy

Aug. 12, 2014 Rise Set
Actual Time 6:09 AM CDT 8:20 PM CDT
Civil Twilight 5:37 AM CDT 8:51 PM CDT
Nautical Twilight 4:57 AM CDT 9:31 PM CDT
Astronomical Twilight 4:13 AM CDT 10:14 PM CDT
Moon 9:18 PM CDT (8/12) 8:34 AM CDT (8/12)
Length of Visible Light 15h 14m
Length of Day
14h 10m
Waning Gibbous, 94% of the Moon is Illuminated
Aug 12
Waning Gibbous
Aug 17
Last Quarter
Aug 25
New
Sep 2
First Quarter
Sep 8
Full

Hourly Weather History & Observations

Time (CDT) Temp. Dew Point Humidity Pressure Visibility Wind Dir Wind Speed Gust Speed Precip Events Conditions
12:35 AM 59.0 °F 57.2 °F 94% 30.03 in 10.0 mi Calm Calm - N/A   Clear
12:55 AM 59.0 °F 57.2 °F 94% 30.04 in 10.0 mi NW 3.5 mph - N/A   Clear
1:14 AM 59.0 °F 57.2 °F 94% 30.03 in 10.0 mi Calm Calm - N/A   Clear
1:35 AM 57.2 °F 55.4 °F 94% 30.03 in 10.0 mi Calm Calm - N/A   Clear
1:55 AM 57.2 °F 55.4 °F 94% 30.03 in 10.0 mi Calm Calm - N/A   Clear
2:15 AM 57.2 °F 55.4 °F 94% 30.03 in 10.0 mi WNW 3.5 mph - N/A   Clear
2:35 AM 57.2 °F 55.4 °F 94% 30.03 in 10.0 mi NW 3.5 mph - N/A   Clear
2:55 AM 57.2 °F 55.4 °F 94% 30.02 in 10.0 mi NNW 3.5 mph - N/A   Clear
3:15 AM 57.2 °F 55.4 °F 94% 30.02 in 10.0 mi Calm Calm - N/A   Clear
3:35 AM 57.2 °F 55.4 °F 94% 30.02 in 10.0 mi Calm Calm - N/A   Clear
3:55 AM 57.2 °F 55.4 °F 94% 30.02 in 10.0 mi Calm Calm - N/A   Clear
4:35 AM 55.4 °F 55.4 °F 100% 30.02 in 10.0 mi Calm Calm - N/A   Clear
5:15 AM 55.4 °F 53.6 °F 94% 30.02 in 10.0 mi West 4.6 mph - N/A   Clear
5:35 AM 53.6 °F 53.6 °F 100% 30.03 in 7.0 mi West 4.6 mph - N/A   Clear
5:55 AM 53.6 °F 53.6 °F 100% 30.03 in 10.0 mi NW 4.6 mph - N/A   Scattered Clouds
6:15 AM 55.4 °F 55.4 °F 100% 30.04 in 1.2 mi NW 3.5 mph - N/A   Overcast
6:35 AM 57.2 °F 55.4 °F 94% 30.04 in 1.2 mi NW 3.5 mph - N/A   Overcast
6:55 AM 57.2 °F 55.4 °F 94% 30.04 in 1.5 mi NNW 5.8 mph - N/A   Overcast
7:15 AM 57.2 °F 55.4 °F 94% 30.05 in 7.0 mi NNW 6.9 mph - N/A   Overcast
7:35 AM 57.2 °F 55.4 °F 94% 30.05 in 10.0 mi NNW 4.6 mph - N/A   Overcast
7:55 AM 57.2 °F 57.2 °F 100% 30.05 in 7.0 mi North 4.6 mph - N/A   Overcast
8:15 AM 57.2 °F 57.2 °F 100% 30.06 in 10.0 mi North 4.6 mph - N/A   Overcast
8:35 AM 59.0 °F 57.2 °F 94% 30.06 in 7.0 mi NNW 5.8 mph - N/A   Overcast
8:55 AM 60.8 °F 59.0 °F 94% 30.05 in 7.0 mi NNW 5.8 mph - N/A   Overcast
9:14 AM 62.6 °F 59.0 °F 88% 30.05 in 10.0 mi NW 3.5 mph - N/A   Overcast
9:35 AM 64.4 °F 57.2 °F 77% 30.05 in 10.0 mi NNW 9.2 mph - N/A   Mostly Cloudy
9:55 AM 69.8 °F 59.0 °F 68% 30.04 in 10.0 mi WNW 6.9 mph - N/A   Scattered Clouds
10:14 AM 69.8 °F 57.2 °F 64% 30.04 in 10.0 mi WNW 9.2 mph - N/A   Clear
10:35 AM 71.6 °F 55.4 °F 57% 30.04 in 10.0 mi NNW 9.2 mph 17.3 mph N/A   Scattered Clouds
10:55 AM 71.6 °F 48.2 °F 43% 30.04 in 10.0 mi North 10.4 mph 19.6 mph N/A   Scattered Clouds
12:35 PM 75.2 °F 46.4 °F 36% 30.03 in 10.0 mi NNW 15.0 mph 19.6 mph N/A   Scattered Clouds
12:55 PM 75.2 °F 46.4 °F 36% 30.03 in 10.0 mi North 15.0 mph 19.6 mph N/A   Scattered Clouds
1:15 PM 75.2 °F 46.4 °F 36% 30.03 in 10.0 mi North 10.4 mph 19.6 mph N/A   Scattered Clouds
1:35 PM 75.2 °F 48.2 °F 38% 30.02 in 7.0 mi NNW 10.4 mph - N/A   Scattered Clouds
1:55 PM 77.0 °F 46.4 °F 34% 30.02 in 7.0 mi North 11.5 mph 18.4 mph N/A   Scattered Clouds
2:15 PM 78.8 °F 46.4 °F 32% 30.01 in 4.0 mi NW 8.1 mph 18.4 mph N/A   Haze
2:35 PM 78.8 °F 46.4 °F 32% 30.01 in 10.0 mi North 9.2 mph 19.6 mph N/A   Scattered Clouds
3:35 PM 78.8 °F 46.4 °F 32% 30.00 in 10.0 mi NNE 11.5 mph 18.4 mph N/A   Scattered Clouds
3:54 PM 78.8 °F 46.4 °F 32% 30.00 in 10.0 mi North 11.5 mph 18.4 mph N/A   Scattered Clouds
4:15 PM 78.8 °F 46.4 °F 32% 29.99 in 10.0 mi NW 12.7 mph 18.4 mph N/A   Scattered Clouds
4:35 PM 78.8 °F 46.4 °F 32% 29.99 in 10.0 mi NW 9.2 mph - N/A   Scattered Clouds
4:54 PM 78.8 °F 46.4 °F 32% 29.99 in 10.0 mi North 9.2 mph - N/A   Scattered Clouds
5:15 PM 78.8 °F 46.4 °F 32% 29.99 in 10.0 mi NNW 10.4 mph - N/A   Clear
5:35 PM 78.8 °F 46.4 °F 32% 29.99 in 10.0 mi North 9.2 mph - N/A   Clear
5:54 PM 78.8 °F 46.4 °F 32% 29.99 in 10.0 mi NNW 5.8 mph - N/A   Clear
6:15 PM 78.8 °F 46.4 °F 32% 29.99 in 10.0 mi NNW 9.2 mph 16.1 mph N/A   Clear
6:54 PM 78.8 °F 48.2 °F 34% 29.99 in 10.0 mi NNW 5.8 mph - N/A   Clear
7:15 PM 77.0 °F 48.2 °F 36% 29.98 in 10.0 mi NNW 5.8 mph - N/A   Clear
7:35 PM 75.2 °F 50.0 °F 41% 29.99 in 10.0 mi NNW 4.6 mph - N/A   Clear
7:55 PM 73.4 °F 50.0 °F 44% 29.99 in 10.0 mi Calm Calm - N/A   Clear
8:15 PM 71.6 °F 53.6 °F 53% 29.99 in 10.0 mi Calm Calm - N/A   Clear
8:35 PM 68.0 °F 55.4 °F 64% 29.99 in 10.0 mi Calm Calm - N/A   Clear
8:55 PM 66.2 °F 55.4 °F 68% 29.99 in 10.0 mi Calm Calm - N/A   Clear
9:15 PM 64.4 °F 55.4 °F 73% 30.00 in 10.0 mi North 3.5 mph - N/A   Clear
9:55 PM 62.6 °F 55.4 °F 77% 30.01 in 10.0 mi Calm Calm - N/A   Clear
10:15 PM 60.8 °F 55.4 °F 82% 30.01 in 10.0 mi Calm Calm - N/A   Clear
10:35 PM 60.8 °F 55.4 °F 82% 30.01 in 10.0 mi NNW 3.5 mph - N/A   Clear
10:55 PM 60.8 °F 55.4 °F 82% 30.01 in 10.0 mi Calm Calm - N/A   Clear
11:15 PM 60.8 °F 55.4 °F 82% 30.02 in 10.0 mi NNW 3.5 mph - N/A   Clear
11:55 PM 59.0 °F 55.4 °F 88% 30.02 in 10.0 mi NW 3.5 mph - N/A   Clear